When you browse on this site, cookies collect data to enhance your experience and personalize the content and advertising you see.
Visit our Privacy Policy to learn more. By continuing to use the site, you agree to this use of cookies and data.
  • In United Kingdom
  • List of Countries
  • For 7 days
  • Water Temperature
  • Satellite Maps
  • Weather Map
  • Weather Widgets
  • user-avatar
    Login

    Hourly Weather Ogooue-Ivindo

    Today, 27 June, Thursday

    Time Temperature Precipitation Wind Pressure Humidity
    00:00 +22°C° 0 mm 1 mps 716 mmHg 93%
    01:00 +21°C° 0 mm 1 mps 715 mmHg 95%
    02:00 +21°C° 0 mm 1 mps 715 mmHg 96%
    03:00 +21°C° 0 mm 1 mps 715 mmHg 97%
    04:00 +21°C° 0 mm 1 mps 715 mmHg 98%
    05:00 +21°C° 0 mm 1 mps 715 mmHg 96%
    06:00 +21°C° 0 mm 1 mps 715 mmHg 94%
    07:00 +22°C° 0 mm 1 mps 715 mmHg 93%
    08:00 +24°C° 0 mm 1 mps 716 mmHg 82%
    09:00 +26°C° 0 mm 1 mps 716 mmHg 72%
    10:00 +28°C° 0 mm 1 mps 717 mmHg 61%
    11:00 +30°C° 0 mm 1 mps 716 mmHg 55%
    12:00 +31°C° 0 mm 1 mps 716 mmHg 49%
    13:00 +33°C° 0 mm 1 mps 716 mmHg 43%
    14:00 +32°C° 0 mm 1 mps 715 mmHg 44%
    15:00 +32°C° 0 mm 1 mps 714 mmHg 44%
    16:00 +32°C° 0 mm 1 mps 713 mmHg 44%
    17:00 +30°C° 0 mm 1 mps 713 mmHg 53%
    18:00 +28°C° 0 mm 1 mps 714 mmHg 61%
    19:00 +24°C° 0 mm 0 mps 714 mmHg 69%
    20:00 +23°C° 0 mm 0 mps 714 mmHg 71%
    21:00 +23°C° 0 mm 0 mps 715 mmHg 73%
    22:00 +23°C° 0 mm 0 mps 715 mmHg 75%
    23:00 +22°C° 0 mm 0 mps 715 mmHg 78%

    Tomorrow, 28 June, Friday

    Time Temperature Precipitation Wind Pressure Humidity
    00:00 +22°C° 0 mm 0 mps 715 mmHg 80%
    01:00 +21°C° 0 mm 0 mps 715 mmHg 82%
    02:00 +20°C° 0 mm 0 mps 714 mmHg 84%
    03:00 +20°C° 0 mm 0 mps 714 mmHg 87%
    04:00 +19°C° 0 mm 0 mps 714 mmHg 89%
    05:00 +20°C° 0 mm 0 mps 714 mmHg 89%
    06:00 +20°C° 0 mm 0 mps 715 mmHg 88%
    07:00 +20°C° 0 mm 0 mps 715 mmHg 88%
    08:00 +24°C° 0 mm 1 mps 716 mmHg 80%
    09:00 +26°C° 0 mm 1 mps 716 mmHg 72%
    10:00 +28°C° 0 mm 1 mps 716 mmHg 64%
    11:00 +29°C° 0 mm 1 mps 716 mmHg 59%
    12:00 +31°C° 0 mm 1 mps 715 mmHg 54%
    13:00 +32°C° 0 mm 1 mps 715 mmHg 49%
    14:00 +32°C° 0 mm 1 mps 714 mmHg 50%
    15:00 +32°C° 0 mm 1 mps 714 mmHg 50%
    16:00 +32°C° 0 mm 1 mps 713 mmHg 51%
    17:00 +30°C° 0 mm 1 mps 713 mmHg 57%
    18:00 +28°C° 0 mm 1 mps 713 mmHg 64%
    19:00 +27°C° 0 mm 1 mps 713 mmHg 71%
    20:00 +26°C° 0 mm 1 mps 714 mmHg 73%
    21:00 +25°C° 0 mm 1 mps 714 mmHg 76%
    22:00 +24°C° 0 mm 1 mps 714 mmHg 79%
    23:00 +24°C° 0 mm 1 mps 714 mmHg 81%

    Day after tomorrow, 29 June, Saturday

    Time Temperature Precipitation Wind Pressure Humidity
    00:00 +22°C° 0 mm 0 mps 714 mmHg 83%
    01:00 +21°C° 0 mm 0 mps 714 mmHg 84%
    02:00 +23°C° 0 mm 1 mps 714 mmHg 86%
    03:00 +22°C° 0 mm 1 mps 714 mmHg 88%
    04:00 +22°C° 0 mm 1 mps 714 mmHg 90%
    05:00 +22°C° 0 mm 1 mps 714 mmHg 90%
    06:00 +22°C° 0 mm 1 mps 715 mmHg 90%
    07:00 +22°C° 0 mm 1 mps 715 mmHg 90%
    08:00 +23°C° 0 mm 1 mps 716 mmHg 87%
    09:00 +24°C° 0 mm 1 mps 716 mmHg 84%
    10:00 +24°C° 0 mm 1 mps 716 mmHg 81%
    11:00 +25°C° 0 mm 1 mps 716 mmHg 77%
    12:00 +26°C° 0 mm 1 mps 715 mmHg 73%
    13:00 +27°C° 0 mm 1 mps 715 mmHg 70%
    14:00 +28°C° 0 mm 1 mps 714 mmHg 68%
    15:00 +28°C° 0 mm 1 mps 714 mmHg 66%
    16:00 +29°C° 0 mm 1 mps 714 mmHg 65%
    17:00 +28°C° 0 mm 1 mps 714 mmHg 71%
    18:00 +26°C° 0 mm 1 mps 714 mmHg 77%
    19:00 +25°C° 0 mm 1 mps 714 mmHg 83%
    20:00 +24°C° 0 mm 1 mps 714 mmHg 85%
    21:00 +22°C° 0 mm 0 mps 715 mmHg 88%
    22:00 +21°C° 0 mm 0 mps 715 mmHg 90%
    23:00 +21°C° 0 mm 0 mps 715 mmHg 91%

    30 June, Sunday

    Time Temperature Precipitation Wind Pressure Humidity
    00:00 +21°C° 0 mm 0 mps 715 mmHg 91%
    01:00 +20°C° 0 mm 0 mps 715 mmHg 92%
    02:00 +20°C° 0 mm 0 mps 715 mmHg 92%
    03:00 +22°C° 0 mm 1 mps 714 mmHg 93%
    04:00 +22°C° 0 mm 1 mps 714 mmHg 93%
    05:00 +22°C° 0 mm 1 mps 715 mmHg 92%
    06:00 +22°C° 0 mm 1 mps 715 mmHg 91%
    07:00 +22°C° 0 mm 1 mps 716 mmHg 90%
    08:00 +24°C° 0 mm 1 mps 716 mmHg 81%
    09:00 +26°C° 0 mm 1 mps 717 mmHg 73%
    10:00 +28°C° 0 mm 1 mps 717 mmHg 65%
    11:00 +30°C° 0 mm 1 mps 716 mmHg 60%
    12:00 +31°C° 0 mm 1 mps 716 mmHg 55%
    13:00 +32°C° 0 mm 1 mps 715 mmHg 51%
    14:00 +32°C° 0 mm 1 mps 715 mmHg 51%
    15:00 +32°C° 0 mm 1 mps 714 mmHg 52%
    16:00 +32°C° 0 mm 1 mps 714 mmHg 53%
    17:00 +30°C° 0.4 mm 1 mps 714 mmHg 62%
    18:00 +28°C° 0.4 mm 1 mps 714 mmHg 71%
    19:00 +26°C° 0.4 mm 1 mps 714 mmHg 81%
    20:00 +25°C° 1.9 mm 1 mps 714 mmHg 85%
    21:00 +25°C° 1.9 mm 1 mps 715 mmHg 89%
    22:00 +24°C° 1.9 mm 1 mps 715 mmHg 93%
    23:00 +24°C° 0.4 mm 1 mps 715 mmHg 94%

    1 July, Monday

    Time Temperature Precipitation Wind Pressure Humidity
    00:00 +23°C° 0.4 mm 1 mps 715 mmHg 94%
    01:00 +21°C° 0.4 mm 0 mps 714 mmHg 95%
    02:00 +21°C° 0 mm 0 mps 714 mmHg 96%
    03:00 +23°C° 0 mm 1 mps 714 mmHg 97%
    04:00 +22°C° 0 mm 1 mps 714 mmHg 98%
    05:00 +23°C° 0 mm 1 mps 714 mmHg 97%
    06:00 +23°C° 0 mm 1 mps 714 mmHg 96%
    07:00 +23°C° 0 mm 1 mps 715 mmHg 95%
    08:00 +24°C° 0 mm 1 mps 715 mmHg 88%
    09:00 +26°C° 0 mm 1 mps 716 mmHg 80%
    10:00 +28°C° 0 mm 1 mps 716 mmHg 72%
    11:00 +28°C° 0 mm 1 mps 715 mmHg 70%
    12:00 +29°C° 0 mm 1 mps 715 mmHg 68%
    13:00 +30°C° 0 mm 2 mps 714 mmHg 66%
    14:00 +29°C° 0.1 mm 2 mps 714 mmHg 66%
    15:00 +29°C° 0.1 mm 1 mps 713 mmHg 67%
    16:00 +29°C° 0.1 mm 1 mps 713 mmHg 68%
    17:00 +28°C° 0.7 mm 1 mps 713 mmHg 74%
    18:00 +26°C° 0.7 mm 1 mps 713 mmHg 81%
    19:00 +25°C° 0.7 mm 1 mps 713 mmHg 87%
    20:00 +24°C° 0.1 mm 1 mps 714 mmHg 89%
    21:00 +24°C° 0.1 mm 1 mps 714 mmHg 90%
    22:00 +23°C° 0.1 mm 1 mps 714 mmHg 92%
    23:00 +23°C° 0 mm 1 mps 714 mmHg 93%

    2 July, Tuesday

    Time Temperature Precipitation Wind Pressure Humidity
    00:00 +23°C° 0 mm 1 mps 714 mmHg 93%
    01:00 +23°C° 0 mm 1 mps 714 mmHg 94%
    02:00 +22°C° 0 mm 1 mps 713 mmHg 95%
    03:00 +22°C° 0 mm 1 mps 713 mmHg 96%
    04:00 +22°C° 0 mm 1 mps 713 mmHg 96%
    05:00 +22°C° 0 mm 1 mps 713 mmHg 95%
    06:00 +22°C° 0 mm 1 mps 714 mmHg 94%
    07:00 +22°C° 0 mm 1 mps 714 mmHg 93%
    08:00 +24°C° 0 mm 1 mps 714 mmHg 86%
    09:00 +25°C° 0 mm 1 mps 715 mmHg 80%
    10:00 +27°C° 0 mm 2 mps 715 mmHg 73%
    11:00 +27°C° 0 mm 2 mps 715 mmHg 74%
    12:00 +27°C° 0 mm 2 mps 714 mmHg 74%
    13:00 +27°C° 0 mm 2 mps 713 mmHg 75%
    14:00 +27°C° 0 mm 2 mps 713 mmHg 73%
    15:00 +27°C° 0 mm 1 mps 712 mmHg 72%
    16:00 +28°C° 0 mm 1 mps 712 mmHg 70%
    17:00 +27°C° 0 mm 1 mps 712 mmHg 75%
    18:00 +26°C° 0 mm 1 mps 712 mmHg 79%
    19:00 +25°C° 0 mm 1 mps 713 mmHg 84%
    20:00 +24°C° 0 mm 1 mps 713 mmHg 86%
    21:00 +24°C° 0 mm 1 mps 714 mmHg 87%
    22:00 +21°C° 0 mm 0 mps 714 mmHg 89%
    23:00 +23°C° 0 mm 1 mps 714 mmHg 90%
    Show more